Tracking 19245 objects as of 18-Aug-2018
HD Live streaming from Space Station
objects crossing your sky now

NOAA 16 DEB

Track NOAA 16 DEB now!
10-day predictions


NORAD ID: 41421
Int'l Code: 2000-055LA
Perigee: 783.3 km
Apogee: 864.4 km
Inclination: 98.9 °
Period: 101.2 minutes
Semi major axis: 7194 km
RCS: Unknown
Launch date: September 21, 2000
Source: United States (US)
Launch site: AIR FORCE WESTERN TEST RANGE (AFWTR)

Note: This is SATELLITE DEBRIS
aabbcc
Your satellite tracking list
Your tracking list is empty




NASA's NSSDC Master Catalog

Two Line Element Set (TLE):
1 41421U 00055LA  18228.48275977  .00000916  00000-0  42343-3 0  9997
2 41421  98.9031 320.0135 0056352 163.9794 196.3181 14.22562919128492
Source of the keplerian elements: AFSPC